period_start,C,m1,H,J0,J1,J2,J3,J4,J5,JA,JB,JC,JD,JJ,JK,JN,#
2015-12-02 00:03:17,0.23,11.01,0.00,23.54,27.82,31.19,14.70,51.94,1018.58,2026.94,1224.84,1382.23,1540.29,600.40,596.46,48.10,0000 0000 0000 0000 000000
2015-12-02 00:08:18,0.15,11.02,0.00,23.48,27.82,31.18,14.63,51.71,1018.74,2026.90,1223.99,1381.61,1539.53,599.87,596.14,48.15,0000 0000 0000 0000 000000
2015-12-02 00:13:19,0.14,11.03,0.00,23.45,27.82,31.16,14.57,51.71,1018.84,2026.89,1223.06,1380.94,1538.76,599.85,596.28,48.20,0000 0000 0000 0000 000000
2015-12-02 00:18:20,0.20,11.04,0.00,23.45,27.82,31.15,14.61,51.84,1018.96,2026.89,1222.15,1380.10,1537.98,599.49,596.17,48.25,0000 0000 0000 0000 000000
2015-12-02 00:23:22,0.19,11.05,0.00,23.45,27.81,31.14,14.64,51.87,1018.93,2026.85,1221.25,1379.48,1537.14,600.19,596.74,48.30,0000 0000 0000 0000 000000
2015-12-02 00:28:23,0.14,11.05,0.00,23.43,27.80,31.14,14.59,51.87,1018.58,2026.89,1220.51,1378.92,1536.54,600.05,596.41,48.35,0000 0000 0000 0000 000000
2015-12-02 00:33:25,0.19,11.06,0.00,23.33,27.80,31.12,14.62,51.96,1018.64,2026.90,1219.56,1378.10,1535.75,600.20,596.79,48.40,0000 0000 0000 0000 000000
2015-12-02 00:38:26,0.19,11.07,0.00,22.94,27.80,31.17,14.65,51.92,1018.67,2026.87,1218.58,1377.40,1535.01,600.13,597.49,48.45,0000 0000 0000 0000 000000
2015-12-02 00:43:27,0.17,11.08,0.00,22.51,27.77,31.27,14.70,52.13,1018.73,2026.91,1217.57,1376.82,1534.26,600.07,598.33,48.50,0000 0000 0000 0000 000000
2015-12-02 00:48:28,0.18,11.09,0.00,22.49,27.76,31.29,14.68,52.20,1018.64,2026.95,1216.71,1376.05,1533.56,599.74,597.93,48.55,0000 0000 0000 0000 000000
2015-12-02 00:53:30,0.13,11.10,0.00,22.46,27.74,31.24,14.77,52.48,1018.65,2026.99,1215.94,1375.56,1532.93,600.11,598.29,48.60,0000 0000 0000 0000 000000
2015-12-02 00:58:31,0.16,11.11,0.00,22.44,27.71,31.19,14.67,52.42,1018.75,2026.99,1215.09,1374.86,1532.10,599.96,598.46,48.65,0000 0000 0000 0000 000000
2015-12-02 01:03:33,0.20,11.12,0.00,22.44,27.69,31.16,14.69,52.37,1018.90,2026.99,1214.23,1374.05,1531.36,600.17,598.64,48.70,0000 0000 0000 0000 000000
2015-12-02 01:08:35,0.20,11.13,0.00,22.43,27.66,31.11,14.73,52.18,1019.01,2026.99,1213.31,1373.41,1530.65,599.89,598.51,48.75,0000 0000 0000 0000 000000
2015-12-02 01:13:36,0.13,11.13,0.00,22.43,27.63,31.11,14.72,52.29,1019.03,2026.99,1212.51,1372.88,1529.94,600.16,598.79,48.80,0000 0000 0000 0000 000000
2015-12-02 01:18:37,0.20,11.14,0.00,22.44,27.61,31.07,14.66,52.26,1019.05,2027.03,1211.55,1372.09,1529.11,599.90,598.50,48.85,0000 0000 0000 0000 000000
2015-12-02 01:23:39,0.25,11.16,0.00,22.42,27.58,31.05,14.76,52.23,1019.06,2027.24,1210.53,1371.48,1528.35,600.21,598.85,48.91,0000 0000 0000 0000 000000
2015-12-02 01:28:40,0.20,11.17,0.00,22.43,27.56,31.03,14.76,52.13,1019.04,2027.72,1209.64,1370.87,1527.73,599.94,598.63,48.96,0000 0000 0000 0000 000000
2015-12-02 01:33:41,0.16,11.18,0.00,22.51,27.54,31.03,14.71,52.23,1019.05,2027.92,1208.88,1370.06,1526.98,600.02,598.42,49.01,0000 0000 0000 0000 000000
2015-12-02 01:38:43,0.20,11.19,0.00,22.65,27.52,30.97,14.68,52.22,1019.03,2027.97,1207.99,1369.47,1526.12,599.85,598.01,49.06,0000 0000 0000 0000 000000
2015-12-02 01:43:44,0.17,11.20,0.00,22.75,27.50,30.97,14.70,52.27,1019.04,2027.96,1207.11,1368.89,1525.32,600.16,598.18,49.11,0000 0000 0000 0000 000000
2015-12-02 01:48:45,0.19,11.21,0.00,22.86,27.48,30.93,14.66,52.13,1019.02,2027.98,1206.29,1368.06,1524.63,599.78,597.60,49.16,0000 0000 0000 0000 000000
2015-12-02 01:53:46,0.17,11.21,0.00,22.85,27.47,30.87,14.65,52.11,1019.04,2027.99,1205.50,1367.52,1523.91,600.33,598.05,49.21,0000 0000 0000 0000 000000
2015-12-02 01:58:48,0.16,11.22,0.00,22.81,27.47,30.90,14.65,52.11,1019.02,2027.99,1204.60,1366.86,1523.07,599.88,597.77,49.26,0000 0000 0000 0000 000000
2015-12-02 02:03:49,0.19,11.23,0.00,22.83,27.45,30.90,14.62,52.02,1018.89,2027.99,1203.69,1366.05,1522.27,600.01,597.68,49.31,0000 0000 0000 0000 000000
2015-12-02 02:08:50,0.22,11.24,0.00,22.78,27.45,30.91,14.66,52.21,1018.98,2027.99,1202.68,1365.28,1521.45,599.71,597.50,49.36,0000 0000 0000 0000 000000
2015-12-02 02:13:52,0.14,11.25,0.00,22.75,27.45,30.93,14.66,52.02,1018.92,2027.99,1201.81,1364.68,1520.72,599.81,597.67,49.41,0000 0000 0000 0000 000000
2015-12-02 02:18:53,0.14,11.26,0.00,22.78,27.45,30.92,14.62,51.92,1018.62,2027.99,1200.92,1363.99,1519.97,600.07,597.82,49.46,0000 0000 0000 0000 000000
2015-12-02 02:23:54,0.22,11.27,0.00,22.76,27.44,30.90,14.64,52.01,1018.60,2027.99,1199.93,1363.14,1519.10,599.82,597.53,49.51,0000 0000 0000 0000 000000
2015-12-02 02:28:56,0.21,11.28,0.00,22.75,27.42,30.92,14.69,52.17,1018.65,2027.99,1199.03,1362.47,1518.23,600.12,598.04,49.56,0000 0000 0000 0000 000000
2015-12-02 02:33:57,0.16,11.29,0.00,22.75,27.42,30.90,14.62,52.11,1018.64,2027.99,1198.11,1361.86,1517.51,599.82,597.55,49.61,0000 0000 0000 0000 000000
2015-12-02 02:38:58,0.19,11.30,0.00,22.69,27.42,30.88,14.76,52.31,1018.60,2027.99,1197.18,1361.06,1516.74,600.42,598.31,49.66,0000 0000 0000 0000 000000
2015-12-02 02:43:59,0.20,11.31,0.00,22.66,27.42,30.89,14.71,52.26,1018.58,2027.99,1196.30,1360.32,1515.92,600.09,597.88,49.71,0000 0000 0000 0000 000000
2015-12-02 02:49:00,0.17,11.32,0.00,22.64,27.40,30.91,14.71,52.23,1018.57,2027.99,1195.37,1359.74,1515.08,600.16,598.08,49.77,0000 0000 0000 0000 000000
2015-12-02 02:54:02,0.19,11.33,0.00,22.56,27.40,30.91,14.65,52.17,1018.57,2028.00,1194.37,1358.99,1514.24,599.90,598.03,49.82,0000 0000 0000 0000 000000
2015-12-02 02:59:03,0.21,11.34,0.00,22.49,27.40,30.93,14.76,52.35,1018.57,2028.00,1193.50,1358.19,1513.53,600.17,598.33,49.87,0000 0000 0000 0000 000000
2015-12-02 03:04:04,0.19,11.35,0.00,22.43,27.38,30.96,14.62,52.27,1018.57,2028.01,1192.57,1357.53,1512.73,599.88,598.19,49.92,0000 0000 0000 0000 000000
2015-12-02 03:09:06,0.13,11.36,0.00,22.38,27.37,30.94,14.74,52.27,1018.56,2028.00,1191.70,1356.88,1511.94,599.98,598.43,49.97,0000 0000 0000 0000 000000
2015-12-02 03:14:07,0.23,11.37,0.00,22.34,27.36,30.91,14.61,52.21,1018.57,2028.01,1190.66,1356.07,1511.08,599.87,598.39,50.02,0000 0000 0000 0000 000000
2015-12-02 03:19:09,0.20,11.38,0.00,22.30,27.35,30.93,14.69,52.24,1018.57,2028.03,1189.75,1355.39,1510.24,600.04,598.67,50.07,0000 0000 0000 0000 000000
2015-12-02 03:24:10,0.19,11.39,0.00,22.29,27.33,30.88,14.71,52.24,1018.57,2028.07,1188.77,1354.73,1509.47,600.11,598.69,50.12,0000 0000 0000 0000 000000
2015-12-02 03:29:11,0.14,11.40,0.00,22.28,27.32,30.91,14.63,52.14,1018.56,2028.11,1187.91,1354.01,1508.73,599.54,598.10,50.17,0000 0000 0000 0000 000000
2015-12-02 03:34:13,0.20,11.41,0.00,22.27,27.30,30.89,14.68,52.26,1018.54,2028.25,1187.01,1353.25,1507.95,600.03,598.72,50.22,0000 0000 0000 0000 000000
2015-12-02 03:39:14,0.25,11.42,0.00,22.24,27.29,30.85,14.73,52.30,1018.58,2028.64,1186.04,1352.66,1507.10,600.08,598.74,50.27,0000 0000 0000 0000 000000
2015-12-02 03:44:15,0.22,11.43,0.00,22.24,27.27,30.85,14.72,52.32,1018.59,2028.80,1185.04,1351.97,1506.27,600.31,599.07,50.32,0000 0000 0000 0000 000000
2015-12-02 03:49:17,0.22,11.44,0.00,22.21,27.25,30.80,14.74,52.27,1018.61,2028.97,1184.07,1351.12,1505.52,600.38,599.19,50.37,0000 0000 0000 0000 000000
2015-12-02 03:54:18,0.22,11.45,0.00,22.18,27.23,30.80,14.73,52.36,1018.59,2028.96,1183.08,1350.34,1504.66,600.11,598.82,50.42,0000 0000 0000 0000 000000
2015-12-02 03:59:19,0.17,11.46,0.00,22.18,27.22,30.79,14.74,52.33,1018.58,2028.97,1182.11,1349.75,1503.94,600.00,598.84,50.47,0000 0000 0000 0000 000000
2015-12-02 04:04:21,0.19,11.47,0.00,22.18,27.20,30.77,14.73,52.44,1018.60,2028.99,1181.17,1348.99,1503.05,600.19,599.07,50.52,0000 0000 0000 0000 000000
2015-12-02 04:09:22,0.22,11.48,0.00,22.17,27.18,30.76,14.72,52.42,1018.62,2028.99,1180.19,1348.17,1502.11,599.86,598.75,50.57,0000 0000 0000 0000 000000
2015-12-02 04:14:23,0.22,11.49,0.00,22.15,27.16,30.76,14.69,52.28,1018.70,2028.99,1179.20,1347.33,1501.19,600.04,598.96,50.62,0000 0000 0000 0000 000000
2015-12-02 04:19:24,0.18,11.50,0.00,22.14,27.15,30.68,14.73,52.51,1018.88,2029.00,1178.27,1346.76,1500.44,600.01,599.14,50.67,0000 0000 0000 0000 000000
2015-12-02 04:24:25,0.20,11.51,0.00,22.15,27.13,30.68,14.76,52.48,1018.96,2029.00,1177.25,1345.95,1499.49,600.04,599.15,50.73,0000 0000 0000 0000 000000
2015-12-02 04:29:27,0.21,11.53,0.00,22.16,27.11,30.66,14.76,52.38,1018.95,2029.00,1176.23,1345.10,1498.64,599.95,599.06,50.78,0000 0000 0000 0000 000000
2015-12-02 04:34:28,0.21,11.54,0.00,22.15,27.10,30.66,14.69,52.38,1018.69,2029.01,1175.34,1344.30,1497.80,600.02,599.02,50.83,0000 0000 0000 0000 000000
2015-12-02 04:39:29,0.18,11.55,0.00,22.19,27.08,30.68,14.71,52.45,1018.76,2029.01,1174.38,1343.69,1496.97,600.01,599.06,50.88,0000 0000 0000 0000 000000
2015-12-02 04:44:30,0.19,11.56,0.00,22.14,27.07,30.65,14.76,52.39,1018.84,2029.03,1173.30,1342.96,1496.06,600.11,599.28,50.93,0000 0000 0000 0000 000000
2015-12-02 04:49:32,0.25,11.57,0.00,22.12,27.05,30.67,14.76,52.45,1018.81,2029.10,1172.25,1342.10,1495.06,600.19,599.25,50.98,0000 0000 0000 0000 000000
2015-12-02 04:54:33,0.27,11.58,0.00,22.15,27.05,30.63,14.67,52.31,1018.85,2029.26,1171.19,1341.26,1494.12,599.60,598.65,51.03,0000 0000 0000 0000 000000
2015-12-02 04:59:34,0.24,11.60,0.00,22.11,27.02,30.64,14.74,52.21,1018.78,2029.56,1170.19,1340.68,1493.27,599.84,598.91,51.08,0000 0000 0000 0000 000000
2015-12-02 05:04:35,0.23,11.61,0.00,22.14,27.02,30.64,14.69,52.13,1018.65,2029.88,1169.24,1339.90,1492.42,599.93,598.87,51.13,0000 0000 0000 0000 000000
2015-12-02 05:09:37,0.22,11.62,0.00,22.12,27.01,30.56,14.74,52.20,1018.59,2029.94,1168.21,1339.06,1491.57,600.26,599.23,51.18,0000 0000 0000 0000 000000
2015-12-02 05:14:38,0.21,11.63,0.00,22.12,27.00,30.56,14.66,52.14,1018.58,2029.95,1167.28,1338.28,1490.79,600.02,598.96,51.23,0000 0000 0000 0000 000000
2015-12-02 05:19:40,0.18,11.64,0.00,22.11,26.98,30.58,14.74,52.21,1018.60,2029.97,1166.32,1337.73,1489.99,599.97,598.95,51.28,0000 0000 0000 0000 000000
2015-12-02 05:24:41,0.19,11.65,0.00,22.11,26.97,30.58,14.73,52.31,1018.65,2029.99,1165.39,1336.99,1489.11,600.20,599.17,51.33,0000 0000 0000 0000 000000
2015-12-02 05:29:43,0.23,11.66,0.00,22.12,26.96,30.55,14.73,52.45,1018.83,2029.99,1164.37,1336.15,1488.22,599.92,599.02,51.38,0000 0000 0000 0000 000000
2015-12-02 05:34:44,0.21,11.67,0.00,22.15,26.95,30.54,14.74,52.38,1018.96,2029.98,1163.45,1335.48,1487.47,600.10,599.20,51.43,0000 0000 0000 0000 000000
2015-12-02 05:39:45,0.14,11.68,0.00,22.12,26.94,30.52,14.78,52.27,1018.97,2029.99,1162.72,1334.82,1486.68,600.27,599.45,51.48,0000 0000 0000 0000 000000
2015-12-02 05:44:46,0.23,11.69,0.00,22.12,26.92,30.50,14.73,52.23,1019.06,2029.99,1161.68,1333.93,1485.75,600.18,599.44,51.54,0000 0000 0000 0000 000000
2015-12-02 05:49:48,0.19,11.70,0.00,22.12,26.91,30.52,14.75,52.30,1019.06,2029.99,1160.74,1333.07,1484.94,600.34,599.52,51.59,0000 0000 0000 0000 000000
2015-12-02 05:54:49,0.20,11.71,0.00,22.12,26.90,30.49,14.72,52.42,1019.06,2030.00,1159.88,1332.38,1484.08,600.21,599.53,51.64,0000 0000 0000 0000 000000
2015-12-02 05:59:50,0.16,11.72,0.00,22.11,26.89,30.43,14.69,52.39,1019.06,2030.00,1159.02,1331.79,1483.35,599.88,599.20,51.69,0000 0000 0000 0000 000000
2015-12-02 06:04:51,0.20,11.73,0.00,22.13,26.87,30.47,14.73,52.40,1019.06,2030.00,1158.12,1331.02,1482.58,600.25,599.45,51.74,0000 0000 0000 0000 000000
2015-12-02 06:09:52,0.20,11.74,0.00,22.11,26.87,30.47,14.75,52.41,1019.06,2030.01,1157.24,1330.32,1481.85,600.03,599.34,51.79,0000 0000 0000 0000 000000
2015-12-02 06:14:54,0.16,11.75,0.00,22.08,26.85,30.47,14.69,52.48,1019.06,2030.01,1156.44,1329.79,1481.04,600.03,599.34,51.84,0000 0000 0000 0000 000000
2015-12-02 06:19:55,0.19,11.76,0.00,22.10,26.85,30.44,14.67,52.56,1019.06,2030.01,1155.63,1329.04,1480.25,600.02,599.29,51.89,0000 0000 0000 0000 000000
2015-12-02 06:24:56,0.17,11.77,0.00,22.08,26.83,30.40,14.71,52.42,1019.06,2030.05,1154.86,1328.36,1479.59,600.05,599.42,51.94,0000 0000 0000 0000 000000
2015-12-02 06:29:57,0.16,11.78,0.00,22.09,26.82,30.41,14.74,52.24,1019.07,2030.10,1153.96,1327.79,1478.81,600.08,599.39,51.99,0000 0000 0000 0000 000000
2015-12-02 06:34:58,0.20,11.79,0.00,22.07,26.81,30.38,14.77,52.41,1019.07,2030.23,1153.07,1327.03,1478.03,600.19,599.51,52.04,0000 0000 0000 0000 000000
2015-12-02 06:40:00,0.23,11.80,0.00,22.07,26.80,30.38,14.74,52.56,1019.06,2030.24,1152.25,1326.31,1477.21,599.73,598.99,52.09,0000 0000 0000 0000 000000
2015-12-02 06:45:01,0.19,11.80,0.00,22.08,26.80,30.35,14.75,52.58,1019.06,2030.23,1151.42,1325.75,1476.46,600.09,599.32,52.14,0000 0000 0000 0000 000000
2015-12-02 06:50:02,0.18,11.82,0.00,22.07,26.78,30.38,14.69,52.54,1019.06,2030.51,1150.69,1325.03,1475.75,599.94,599.30,52.19,0000 0000 0000 0000 000000
2015-12-02 06:55:04,0.21,11.83,0.00,22.07,26.77,30.38,14.70,52.52,1019.06,2030.78,1149.92,1324.31,1475.02,599.98,599.40,52.24,0000 0000 0000 0000 000000
2015-12-02 07:00:05,0.18,11.84,0.00,22.04,26.76,30.41,14.73,52.41,1019.06,2030.86,1149.06,1323.81,1474.24,599.84,599.24,52.29,0000 0000 0000 0000 000000
2015-12-02 07:05:06,0.21,11.85,0.00,22.05,26.75,30.34,14.75,52.46,1019.06,2030.94,1148.19,1323.03,1473.55,600.18,599.56,52.34,0000 0000 0000 0000 000000
2015-12-02 07:10:08,0.19,11.86,0.00,22.02,26.75,30.29,14.74,52.40,1019.06,2030.96,1147.39,1322.39,1472.84,599.86,599.37,52.39,0000 0000 0000 0000 000000
2015-12-02 07:15:09,0.17,11.87,0.00,22.00,26.72,30.33,14.78,52.46,1019.06,2030.96,1146.53,1321.81,1472.05,600.01,599.51,52.44,0000 0000 0000 0000 000000
2015-12-02 07:20:10,0.17,11.88,0.00,21.99,26.72,30.31,14.69,52.45,1019.07,2030.96,1145.78,1321.03,1471.32,599.74,599.40,52.50,0000 0000 0000 0000 000000
2015-12-02 07:25:12,0.16,11.88,0.00,21.96,26.71,30.30,14.77,52.53,1019.09,2030.98,1144.98,1320.41,1470.83,600.06,599.70,52.55,0000 0000 0000 0000 000000
2015-12-02 07:30:13,0.18,11.89,0.00,21.96,26.70,30.29,14.79,52.38,1019.15,2030.98,1144.01,1319.83,1469.97,600.03,599.78,52.60,0000 0000 0000 0000 000000
2015-12-02 07:35:15,0.21,11.91,0.00,21.95,26.69,30.27,14.75,52.49,1019.22,2030.99,1143.07,1319.03,1469.09,599.95,599.60,52.65,0000 0000 0000 0000 000000
2015-12-02 07:40:16,0.23,11.92,0.00,21.94,26.67,30.26,14.80,52.59,1019.39,2030.99,1142.17,1318.32,1468.36,599.97,599.84,52.70,0000 0000 0000 0000 000000
2015-12-02 07:45:17,0.16,11.92,0.00,21.90,26.66,30.25,14.78,52.52,1019.52,2030.99,1141.33,1317.78,1467.76,599.99,599.95,52.75,0000 0000 0000 0000 000000
2015-12-02 07:50:18,0.18,11.93,0.00,21.87,26.65,30.22,14.69,52.36,1019.54,2030.99,1140.51,1317.04,1466.98,599.81,599.74,52.80,0000 0000 0000 0000 000000
2015-12-02 07:55:20,0.22,11.94,0.00,21.88,26.64,30.16,14.70,52.39,1019.55,2030.99,1139.62,1316.26,1466.13,599.55,599.51,52.85,0000 0000 0000 0000 000000
2015-12-02 08:00:21,0.18,11.95,0.00,21.88,26.62,30.20,14.71,52.40,1019.55,2030.99,1138.75,1315.71,1465.33,599.95,600.02,52.90,0000 0000 0000 0000 000000
2015-12-02 08:05:22,0.15,11.96,0.00,21.82,26.62,30.21,14.79,52.32,1019.55,2031.00,1137.89,1315.00,1464.63,600.16,600.22,52.95,0000 0000 0000 0000 000000
2015-12-02 08:10:24,0.18,11.97,0.00,21.84,26.60,30.19,14.79,52.35,1019.55,2031.00,1137.03,1314.25,1463.97,600.24,600.30,53.00,0000 0000 0000 0000 000000
2015-12-02 08:15:25,0.19,11.98,0.00,21.84,26.60,30.20,14.72,52.31,1019.55,2031.01,1136.20,1313.76,1463.15,600.17,600.24,53.05,0000 0000 0000 0000 000000
2015-12-02 08:20:26,0.34,11.99,0.00,21.80,26.58,30.16,14.72,52.49,1019.55,2031.03,1134.91,1312.72,1462.31,599.82,600.03,53.10,0000 0000 0000 0000 000000
2015-12-02 08:25:27,0.16,12.01,0.00,21.72,26.57,30.17,14.79,52.61,1019.55,2031.06,1133.77,1312.01,1461.21,600.06,600.32,53.15,0000 0000 0000 0000 000000
2015-12-02 08:30:29,0.19,12.02,0.00,21.64,26.57,30.14,14.79,52.59,1019.55,2031.07,1132.93,1311.29,1460.58,600.33,600.78,53.20,0000 0000 0000 0000 000000
2015-12-02 08:35:30,0.17,12.03,0.00,21.69,26.55,30.16,14.76,52.57,1019.55,2031.07,1132.06,1310.67,1459.85,600.24,600.75,53.25,0000 0000 0000 0000 000000
2015-12-02 08:40:32,0.19,12.04,0.00,21.68,26.55,30.09,14.73,52.59,1019.55,2031.12,1131.16,1310.01,1459.04,599.78,600.27,53.30,0000 0000 0000 0000 000000
2015-12-02 08:45:33,0.25,12.05,0.00,21.66,26.53,30.10,14.78,52.66,1019.53,2031.26,1130.38,1309.25,1458.27,599.99,600.48,53.35,0000 0000 0000 0000 000000
2015-12-02 08:50:34,0.18,12.06,0.00,21.71,26.52,30.11,14.73,52.63,1019.47,2031.35,1129.59,1308.67,1457.56,599.78,600.25,53.41,0000 0000 0000 0000 000000
2015-12-02 08:55:36,0.16,12.07,0.00,21.69,26.51,30.12,14.78,52.59,1019.47,2031.43,1128.79,1308.00,1456.84,600.06,600.40,53.46,0000 0000 0000 0000 000000
2015-12-02 09:00:37,0.24,12.08,0.00,21.66,26.50,30.12,14.84,52.63,1019.48,2031.69,1127.94,1307.26,1456.05,600.21,600.64,53.51,0000 0000 0000 0000 000000
2015-12-02 09:05:38,0.22,12.09,0.00,21.68,26.50,30.03,14.71,52.54,1019.42,2031.84,1127.05,1306.62,1455.27,599.38,599.69,53.56,0000 0000 0000 0000 000000
2015-12-02 09:10:39,0.18,12.10,0.00,21.70,26.49,30.08,14.77,52.42,1019.37,2031.83,1126.16,1305.99,1454.55,600.06,600.39,53.61,0000 0000 0000 0000 000000
2015-12-02 09:15:41,0.22,12.11,0.00,21.69,26.47,30.04,14.73,52.58,1019.46,2031.94,1125.39,1305.17,1453.87,599.86,600.20,53.66,0000 0000 0000 0000 000000
2015-12-02 09:20:42,0.19,12.12,0.00,21.69,26.47,30.07,14.77,52.55,1019.54,2031.94,1124.53,1304.62,1453.04,600.04,600.42,53.71,0000 0000 0000 0000 000000
2015-12-02 09:25:44,0.16,12.13,0.00,21.66,26.47,30.02,14.76,52.56,1019.55,2031.91,1123.68,1303.99,1452.17,600.23,600.69,53.76,0000 0000 0000 0000 000000
2015-12-02 09:30:44,0.20,12.14,0.00,21.66,26.45,30.10,14.74,52.45,1019.55,2031.97,1122.87,1303.19,1451.52,599.74,600.32,53.81,0000 0000 0000 0000 000000
2015-12-02 09:35:46,0.18,12.15,0.00,21.67,26.45,30.03,14.78,52.50,1019.55,2031.96,1122.01,1302.57,1450.77,600.18,600.72,53.86,0000 0000 0000 0000 000000
2015-12-02 09:40:47,0.16,12.16,0.00,21.67,26.45,30.05,14.82,52.60,1019.55,2031.95,1121.11,1301.96,1449.99,600.02,600.40,53.91,0000 0000 0000 0000 000000
2015-12-02 09:45:48,0.24,12.17,0.00,21.66,26.45,30.06,14.81,52.55,1019.55,2031.95,1120.27,1301.16,1449.15,599.86,600.35,53.96,0000 0000 0000 0000 000000
2015-12-02 09:50:49,0.21,12.18,0.00,21.60,26.43,30.05,14.81,52.57,1019.55,2031.98,1119.46,1300.57,1448.49,600.43,601.11,54.01,0000 0000 0000 0000 000000
2015-12-02 09:55:51,0.15,12.19,0.00,21.63,26.42,30.01,14.81,52.59,1019.55,2031.99,1118.55,1299.93,1447.78,600.14,600.71,54.06,0000 0000 0000 0000 000000
2015-12-02 10:00:52,0.20,12.20,0.00,21.62,26.42,29.99,14.78,52.65,1019.55,2031.97,1117.67,1299.09,1446.98,599.99,600.54,54.11,0000 0000 0000 0000 000000
2015-12-02 10:05:53,0.18,12.21,0.00,21.60,26.42,30.00,14.77,52.60,1019.55,2031.98,1116.89,1298.53,1446.13,599.91,600.58,54.16,0000 0000 0000 0000 000000
2015-12-02 10:10:55,0.16,12.22,0.00,21.62,26.42,30.05,14.75,52.58,1019.55,2031.99,1116.05,1297.92,1445.43,600.01,600.70,54.21,0000 0000 0000 0000 000000
2015-12-02 10:15:56,0.22,12.23,0.00,21.60,26.42,29.94,14.71,52.61,1019.56,2031.99,1115.17,1297.10,1444.75,599.41,600.03,54.27,0000 0000 0000 0000 000000
2015-12-02 10:20:57,0.20,12.24,0.00,21.58,26.42,29.99,14.82,52.70,1019.55,2031.98,1114.38,1296.48,1443.97,600.01,600.64,54.32,0000 0000 0000 0000 000000
2015-12-02 10:25:59,0.16,12.25,0.00,21.59,26.42,30.03,14.83,52.78,1019.55,2031.98,1113.53,1295.91,1443.10,600.24,600.85,54.37,0000 0000 0000 0000 000000
2015-12-02 10:31:00,0.22,12.26,0.00,21.57,26.40,30.03,14.84,52.77,1019.57,2031.99,1112.71,1295.09,1442.37,600.51,601.13,54.42,0000 0000 0000 0000 000000
2015-12-02 10:36:01,0.16,12.27,0.00,21.57,26.40,29.99,14.76,52.67,1019.55,2031.99,1111.93,1294.50,1441.71,600.14,600.85,54.47,0000 0000 0000 0000 000000
2015-12-02 10:41:03,0.15,12.28,0.00,21.58,26.40,30.03,14.75,52.68,1019.56,2031.99,1111.07,1293.91,1440.98,599.86,600.54,54.52,0000 0000 0000 0000 000000
2015-12-02 10:46:04,0.23,12.29,0.00,21.56,26.40,29.89,14.79,52.72,1019.55,2031.99,1110.33,1293.09,1440.13,600.16,600.76,54.57,0000 0000 0000 0000 000000
2015-12-02 10:51:05,0.21,12.29,0.00,21.57,26.40,29.97,14.77,52.77,1019.56,2031.99,1109.58,1292.52,1439.46,599.79,600.44,54.62,0000 0000 0000 0000 000000
2015-12-02 10:56:07,0.14,12.30,0.00,21.56,26.39,30.03,14.85,52.82,1019.57,2031.99,1108.71,1291.88,1438.69,600.05,600.74,54.67,0000 0000 0000 0000 000000
2015-12-02 11:01:08,0.18,12.32,0.00,21.54,26.37,30.02,14.80,52.88,1019.56,2031.99,1107.88,1291.08,1437.98,599.77,600.50,54.72,0000 0000 0000 0000 000000
2015-12-02 11:06:09,0.23,12.32,0.00,21.53,26.37,29.96,14.79,52.83,1019.56,2031.99,1106.92,1290.52,1437.13,599.89,600.60,54.77,0000 0000 0000 0000 000000
2015-12-02 11:11:10,0.16,12.34,0.00,21.51,26.37,29.92,14.82,52.72,1019.58,2031.99,1106.06,1289.91,1436.37,600.51,601.19,54.82,0000 0000 0000 0000 000000
2015-12-02 11:16:11,0.22,12.34,0.00,21.49,26.37,29.96,14.78,52.80,1019.56,2031.99,1105.31,1289.08,1435.70,600.09,600.86,54.87,0000 0000 0000 0000 000000
2015-12-02 11:21:13,0.21,12.35,0.00,21.50,26.36,29.99,14.77,52.78,1019.56,2031.99,1104.42,1288.48,1434.90,600.00,600.82,54.92,0000 0000 0000 0000 000000
2015-12-02 11:26:14,0.15,12.36,0.00,21.49,26.35,29.95,14.78,52.78,1019.57,2031.99,1103.65,1287.88,1434.05,600.35,601.08,54.97,0000 0000 0000 0000 000000
2015-12-02 11:31:15,0.19,12.38,0.00,21.52,26.35,30.01,14.75,52.87,1019.56,2031.99,1102.83,1287.07,1433.23,600.04,600.79,55.02,0000 0000 0000 0000 000000
2015-12-02 11:36:17,0.21,12.38,0.00,21.51,26.35,29.96,14.76,52.84,1019.55,2031.99,1101.94,1286.42,1432.60,599.75,600.52,55.07,0000 0000 0000 0000 000000
2015-12-02 11:41:18,0.16,12.39,0.00,21.48,26.35,29.90,14.75,52.88,1019.55,2031.99,1101.06,1285.81,1431.88,599.96,600.66,55.12,0000 0000 0000 0000 000000
2015-12-02 11:46:19,0.21,12.41,0.00,21.49,26.35,29.96,14.74,52.73,1019.55,2031.99,1100.24,1285.05,1431.06,599.84,600.65,55.17,0000 0000 0000 0000 000000
2015-12-02 11:51:20,0.23,12.41,0.00,21.48,26.35,29.97,14.83,52.89,1019.55,2031.99,1099.48,1284.34,1430.22,600.16,601.06,55.23,0000 0000 0000 0000 000000
2015-12-02 11:56:22,0.15,12.42,0.00,21.50,26.35,29.95,14.76,52.75,1019.55,2031.99,1098.72,1283.81,1429.53,599.85,600.56,55.28,0000 0000 0000 0000 000000
2015-12-02 12:01:23,0.19,12.43,0.00,21.49,26.33,29.96,14.78,52.69,1019.55,2031.99,1097.80,1283.03,1428.81,600.29,601.12,55.33,0000 0000 0000 0000 000000
2015-12-02 12:06:24,0.19,12.44,0.00,21.47,26.33,29.99,14.78,52.84,1019.55,2031.99,1097.00,1282.37,1428.03,599.96,600.89,55.38,0000 0000 0000 0000 000000
2015-12-02 12:11:25,0.18,12.45,0.00,21.49,26.32,29.96,14.85,52.78,1019.56,2031.99,1096.17,1281.82,1427.25,600.13,600.92,55.43,0000 0000 0000 0000 000000
2015-12-02 12:16:27,0.22,12.46,0.00,21.51,26.32,29.89,14.86,52.88,1019.56,2031.99,1095.33,1281.04,1426.52,600.10,600.93,55.48,0000 0000 0000 0000 000000
2015-12-02 12:21:28,0.20,12.47,0.00,21.49,26.32,29.91,14.82,52.87,1019.55,2031.99,1094.51,1280.40,1425.85,600.34,601.16,55.53,0000 0000 0000 0000 000000
2015-12-02 12:26:29,0.17,12.48,0.00,21.49,26.32,29.99,14.82,52.83,1019.56,2031.99,1093.67,1279.78,1425.04,600.26,601.00,55.58,0000 0000 0000 0000 000000
2015-12-02 12:31:30,0.16,12.49,0.00,21.48,26.30,29.88,14.75,52.80,1019.55,2031.99,1092.89,1279.03,1424.28,599.85,600.83,55.63,0000 0000 0000 0000 000000
2015-12-02 12:36:32,0.21,12.50,0.00,21.50,26.30,29.92,14.81,52.84,1019.55,2031.99,1092.00,1278.51,1423.58,600.06,600.87,55.68,0000 0000 0000 0000 000000
2015-12-02 12:41:33,0.16,12.51,0.00,21.50,26.30,29.89,14.75,52.86,1019.56,2031.99,1091.12,1277.93,1422.82,599.59,600.45,55.73,0000 0000 0000 0000 000000
2015-12-02 12:46:34,0.22,12.52,0.00,21.53,26.30,29.96,14.83,52.93,1019.56,2031.99,1090.36,1277.12,1422.04,600.23,600.86,55.78,0000 0000 0000 0000 000000
2015-12-02 12:51:35,0.22,12.53,0.00,21.51,26.29,29.93,14.76,52.84,1019.56,2031.99,1089.55,1276.52,1421.22,599.96,600.84,55.83,0000 0000 0000 0000 000000